This demonstration page uses our WeatherBlox Daily Observations layout. Learn more.

Left ArrowRight Arrow

39.08367, -84.50855

Hourly Observations for December 14, 2015

Temp ( °F °C ) Dew Point ( °F °C ) Humidity (%) Winds ( mph kmh ) Pressure ( in mb ) Visibility ( mi km ) Precip ( " mm )
12:53 am 00:53 Clear 62 16.7 47 8.3 58 58 S 10 17 29.70 1006 10 16 0.00 0.00
1:53 am 01:53 Clear 62 16.7 47 8.3 58 58 SSE 12 19 29.67 1005 10 16 0.00 0.00
2:53 am 02:53 Clear 63 17.2 48 8.9 58 58 S 12 19 29.67 1005 10 16 0.00 0.00
3:53 am 03:53 Clear 63 17.2 48 8.9 58 58 S 10 17 29.63 1003 10 16 0.00 0.00
4:53 am 04:53 Mostly Cloudy 63 17.2 48 8.9 58 58 S 14 22 29.58 1002 10 16 0.00 0.00
5:53 am 05:53 Mostly Cloudy 65 18.3 49 9.4 56 56 SSE 13 20 29.53 1000 10 16 0.00 0.00
6:45 am 06:45 Cloudy with Rain 60 15.6 57 13.9 90 90 SSW 21 33 29.59 1002 3 4 0.03 0.76
6:53 am 06:53 Cloudy with Rain 59 15 58 14.4 96 96 SSW 23 37 29.60 1002 2 3 0.05 1.27
7:08 am 07:08 Cloudy with Rain 59 15 57 14 94 94 SSW 18 30 29.59 1002 3 4 0.00 0.00
7:16 am 07:16 Cloudy with Light Rain 59 15 N/A N/A SW 16 26 29.59 1002 4 6 0.00 0.00
7:53 am 07:53 Cloudy with Light Rain 57 14 N/A N/A SSW 13 20 29.59 1002 7 11 0.09 2.29
8:53 am 08:53 Cloudy with Light Rain 58 14.4 56 13.3 93 93 S 9 15 29.55 1001 10 16 0.06 1.52
9:53 am 09:53 Cloudy with Light Rain 57 13.9 55 12.8 93 93 SSE 14 22 29.50 999 9 14 0.04 1.02
10:30 am 10:30 Cloudy with Light Rain 57 14 55 13 94 94 SSW 17 28 29.53 1000 10 16 0.00 0.00
10:53 am 10:53 Cloudy with Light Rain 57 13.9 55 12.8 93 93 SSW 13 20 29.51 999 10 16 0.03 0.76
11:00 am 11:00 Cloudy with Light Rain 55 13 55 13 100 100 WSW 13 20 29.50 999 4 6 0.00 0.00
11:31 am 11:31 Cloudy 57 13.9 54 12.2 90 90 SSW 14 22 29.50 999 10 16 0.02 0.51
11:53 am 11:53 Partly Cloudy 60 15.6 51 10.6 72 72 SW 16 26 29.49 999 10 16 0.02 0.51
12:53 pm 12:53 Cloudy 58 14.4 49 9.4 72 72 SW 21 33 29.48 998 10 16 0.00 0.00
1:53 pm 13:53 Cloudy 58 14.4 47 8.3 67 67 SSW 16 26 29.47 998 10 16 0.00 0.00
2:53 pm 14:53 Cloudy with Light Rain 56 13.3 48 8.9 75 75 SW 18 30 29.45 997 9 14 0.00 0.03
3:53 pm 15:53 Cloudy 57 13.9 46 7.8 67 67 SW 21 33 29.48 998 10 16 0.00 0.03
4:53 pm 16:53 Cloudy with Light Rain 54 12.2 47 8.3 77 77 SW 17 28 29.51 999 10 16 0.00 0.03
5:53 pm 17:53 Cloudy with Light Rain 53 11.7 46 7.8 77 77 SSW 15 24 29.53 1000 10 16 0.00 0.03
6:53 pm 18:53 Cloudy 53 11.7 44 6.7 72 72 SW 18 30 29.55 1001 10 16 0.00 0.03
7:53 pm 19:53 Cloudy 51 10.6 46 7.8 83 83 SW 12 19 29.58 1002 10 16 0.00 0.03
8:53 pm 20:53 Cloudy with Light Rain 50 10 46 7.8 86 86 SW 13 20 29.60 1003 10 16 0.00 0.03
9:53 pm 21:53 Cloudy 49 9.4 46 7.8 90 90 WSW 13 20 29.63 1003 10 16 0.00 0.03
10:53 pm 22:53 Cloudy 49 9.4 42 5.6 77 77 WSW 22 35 29.66 1004 10 16 0.01 0.25
11:53 pm 23:53 Cloudy 49 9.4 41 5 74 74 WSW 20 31 29.69 1005 10 16 0.00 0.00

Powered by AerisWeather